Location: Unspecified
(48.8656°N, 0.0000°E)
Time: 21:08:56
(UTC+00:00)

Transit 2A Rocket - Pass Details

Date: 17 June 2019
Orbit: 594 x 909 km, 66.7° (Epoch: 21 October)

Event Time Altitude Azimuth Distance (km) Brightness Sun altitude
Rises 15:48:55 0° 306° (NW) 3,485 8.9 38.9°
Reaches altitude 10° 15:53:12 10° 335° (NNW) 2,488 7.9 38.2°
Maximum altitude 15:55:34 12° 360° (N) 2,275 7.5 37.8°
Drops below altitude 10° 15:57:53 10° 24° (NNE) 2,408 7.4 37.4°
Sets 16:01:52 0° 54° (NE) 3,257 7.8 36.8°
